Weather History for Middlesboro, KY

Change the Weather History Date:

Tuesday, February 5, 2013

  Actual Average (KLOZ) Record (KLOZ)
Temperature  
Mean Temperature 45 °F 37 °F  
Max Temperature 57 °F 47 °F 70 °F (2008)
Min Temperature 33 °F 28 °F 3 °F (1965)
Degree Days  
Heating Degree Days 20 28  
Month to date heating degree days 140  
Since 1 July heating degree days 2703  
Cooling Degree Days 0 0  
Month to date cooling degree days 0  
Year to date cooling degree days 0  
Moisture  
Dew Point 37 °F    
Average Humidity 79    
Maximum Humidity 100    
Minimum Humidity 48    
Precipitation  
Precipitation 0.00 in 0.13 in 2.59 in (2004)
Month to date precipitation 0.64  
Year to date precipitation 4.18  
Sea Level Pressure  
Sea Level Pressure 29.95 in    
Wind  
Wind Speed 1 mph (WSW)    
Max Wind Speed 10 mph    
Max Gust Speed -    
Visibility 9 miles    
Events      
T = Trace of Precipitation, MM = Missing Value Source: NWS Daily Summary

Daily Weather History Graph

Daily Weather History Graph

Search for Another Location

Airport:

Trip Planner

Search our weather history database for the weather conditions in past years. The results will help you decide how hot, cold, wet, or windy it might be!

Date:

Astronomy

Feb. 05, 2013 Rise Set
Actual Time 6:33 AM CST 5:05 PM CST
Civil Twilight 6:06 AM CST 5:32 PM CST
Nautical Twilight 5:35 AM CST 6:03 PM CST
Astronomical Twilight 5:05 AM CST 6:33 PM CST
Moon 2:10 AM CST (2/5) 12:24 PM CST (2/5)
Length of Visible Light 11h 26m
Length of Day
10h 32m
Waning Crescent, 26% of the Moon is Illuminated
Feb 5
Waning Crescent
Feb 10
New
Feb 17
First Quarter
Feb 25
Full
Mar 4
Last Quarter

Hourly Weather History & Observations

Time (CST) Temp. Windchill Dew Point Humidity Pressure Visibility Wind Dir Wind Speed Gust Speed Precip Events Conditions
12:15 AM 39.2 °F - 35.6 °F 87% 29.92 in 10.0 mi Calm Calm - N/A   Overcast
12:35 AM 39.2 °F - 35.6 °F 87% 29.92 in 10.0 mi Calm Calm - N/A   Light Drizzle
12:55 AM 39.2 °F - 35.6 °F 87% 29.91 in 10.0 mi Calm Calm - N/A   Light Drizzle
1:15 AM 39.2 °F - 35.6 °F 87% 29.91 in 10.0 mi Calm Calm - N/A   Overcast
1:35 AM 39.2 °F - 35.6 °F 87% 29.92 in 10.0 mi Calm Calm - N/A   Overcast
1:55 AM 39.2 °F - 37.4 °F 93% 29.92 in 10.0 mi Calm Calm - N/A   Overcast
2:15 AM 39.2 °F - 37.4 °F 93% 29.92 in 10.0 mi Calm Calm - N/A   Overcast
2:35 AM 39.2 °F - 37.4 °F 93% 29.92 in 10.0 mi Calm Calm - N/A   Overcast
2:55 AM 39.2 °F - 37.4 °F 93% 29.92 in 10.0 mi Calm Calm - N/A   Overcast
3:15 AM 39.2 °F - 37.4 °F 93% 29.92 in 10.0 mi Calm Calm - N/A   Overcast
3:35 AM 39.2 °F - 35.6 °F 87% 29.91 in 10.0 mi Calm Calm - N/A   Overcast
3:55 AM 39.2 °F - 35.6 °F 87% 29.91 in 10.0 mi Calm Calm - N/A   Overcast
4:15 AM 39.2 °F - 35.6 °F 87% 29.91 in 10.0 mi Calm Calm - N/A   Overcast
4:35 AM 39.2 °F - 37.4 °F 93% 29.91 in 10.0 mi Calm Calm - N/A   Overcast
4:55 AM 39.2 °F - 37.4 °F 93% 29.92 in 10.0 mi Calm Calm - N/A   Overcast
5:15 AM 39.2 °F - 37.4 °F 93% 29.93 in 10.0 mi Calm Calm - N/A   Overcast
5:35 AM 39.2 °F - 37.4 °F 93% 29.92 in 7.0 mi Calm Calm - N/A   Overcast
5:55 AM 39.2 °F - 35.6 °F 87% 29.93 in 10.0 mi Calm Calm - N/A   Overcast
6:15 AM 39.2 °F - 37.4 °F 93% 29.93 in 10.0 mi Calm Calm - N/A   Overcast
6:35 AM 39.2 °F - 37.4 °F 93% 29.94 in 10.0 mi Calm Calm - N/A   Overcast
6:55 AM 42.8 °F 40.1 °F 35.6 °F 76% 29.94 in 10.0 mi South 4.6 mph - N/A   Overcast
7:15 AM 42.8 °F - 35.6 °F 76% 29.95 in 10.0 mi Calm Calm - N/A   Overcast
7:35 AM 42.8 °F - 37.4 °F 81% 29.95 in 10.0 mi Calm Calm - N/A   Overcast
7:55 AM 42.8 °F - 37.4 °F 81% 29.96 in 10.0 mi Calm Calm - N/A   Overcast
8:15 AM 44.6 °F 42.2 °F 35.6 °F 71% 29.96 in 10.0 mi South 4.6 mph - N/A   Overcast
8:35 AM 44.6 °F 41.4 °F 35.6 °F 71% 29.97 in 10.0 mi South 5.8 mph - N/A   Overcast
8:55 AM - - - N/A% 29.98 in - SSW 4.6 mph - N/A   Unknown
9:15 AM 44.6 °F 43.1 °F 35.6 °F 71% 29.98 in 10.0 mi South 3.5 mph - N/A   Overcast
9:35 AM 46.4 °F 45.2 °F 37.4 °F 71% 29.98 in 10.0 mi South 3.5 mph - N/A   Overcast
9:55 AM 46.4 °F - 37.4 °F 71% 29.99 in 10.0 mi Calm Calm - N/A   Overcast
10:15 AM 46.4 °F - 37.4 °F 71% 29.98 in 10.0 mi Calm Calm - N/A   Overcast
10:35 AM 46.4 °F - 39.2 °F 76% 29.98 in 10.0 mi Calm Calm - N/A   Overcast
10:55 AM 48.2 °F - 39.2 °F 71% 29.99 in 10.0 mi WNW 3.5 mph - N/A   Overcast
11:15 AM 51.8 °F - 41.0 °F 67% 29.97 in 10.0 mi SW 4.6 mph - N/A   Mostly Cloudy
11:35 AM 53.6 °F - 39.2 °F 58% 29.96 in 10.0 mi West 4.6 mph - N/A   Mostly Cloudy
11:55 AM 55.4 °F - 41.0 °F 58% 29.94 in 10.0 mi West 6.9 mph - N/A   Mostly Cloudy
12:15 PM 55.4 °F - 39.2 °F 54% 29.94 in 10.0 mi WSW 4.6 mph - N/A   Mostly Cloudy
12:35 PM 55.4 °F - 39.2 °F 54% 29.94 in 10.0 mi WNW 10.4 mph - N/A   Scattered Clouds
12:55 PM 55.4 °F - 39.2 °F 54% 29.94 in 10.0 mi West 5.8 mph - N/A   Scattered Clouds
1:15 PM 57.2 °F - 39.2 °F 51% 29.93 in 10.0 mi West 8.1 mph - N/A   Scattered Clouds
1:35 PM 55.4 °F - 39.2 °F 54% 29.94 in 10.0 mi West 4.6 mph - N/A   Clear
1:55 PM 55.4 °F - 39.2 °F 54% 29.93 in 10.0 mi NW 6.9 mph - N/A   Clear
2:35 PM 57.2 °F - 39.2 °F 51% 29.93 in 10.0 mi West 4.6 mph - N/A   Scattered Clouds
3:35 PM 57.2 °F - 37.4 °F 48% 29.92 in 10.0 mi WSW 4.6 mph - N/A   Clear
4:35 PM 55.4 °F - 37.4 °F 51% 29.92 in 10.0 mi Calm Calm - N/A   Clear
4:55 PM 55.4 °F - 39.2 °F 54% 29.92 in 10.0 mi Calm Calm - N/A   Clear
5:35 PM 48.2 °F - 39.2 °F 71% 29.93 in 10.0 mi Calm Calm - N/A   Clear
5:55 PM 46.4 °F - 39.2 °F 76% 29.94 in 10.0 mi Calm Calm - N/A   Clear
6:15 PM 44.6 °F - 39.2 °F 81% 29.94 in 10.0 mi Calm Calm - N/A   Clear
6:35 PM 42.8 °F - 37.4 °F 81% 29.95 in 10.0 mi Calm Calm - N/A   Clear
6:55 PM 39.2 °F - 37.4 °F 93% 29.95 in 10.0 mi Calm Calm - N/A   Clear
7:15 PM 39.2 °F - 37.4 °F 93% 29.96 in 10.0 mi Calm Calm - N/A   Clear
7:35 PM 37.4 °F - 35.6 °F 93% 29.96 in 7.0 mi Calm Calm - N/A   Clear
7:55 PM 37.4 °F - 35.6 °F 93% 29.96 in 7.0 mi Calm Calm - N/A   Clear
8:15 PM 37.4 °F - 35.6 °F 93% 29.97 in 5.0 mi Calm Calm - N/A   Clear
8:35 PM 35.6 °F - 35.6 °F 100% 29.98 in 7.0 mi Calm Calm - N/A   Clear
9:15 PM 35.6 °F - 33.8 °F 93% 29.99 in 5.0 mi Calm Calm - N/A   Clear
9:35 PM 35.6 °F - 33.8 °F 93% 29.99 in 5.0 mi Calm Calm - N/A   Clear
9:55 PM 33.8 °F - 33.8 °F 100% 30.00 in 5.0 mi Calm Calm - N/A   Clear
10:15 PM 33.8 °F - 33.8 °F 100% 30.01 in 5.0 mi Calm Calm - N/A   Clear
10:35 PM 35.6 °F - 33.8 °F 93% 30.02 in 5.0 mi Calm Calm - N/A   Clear
10:55 PM 35.6 °F - 35.6 °F 100% 30.02 in 7.0 mi Calm Calm - N/A   Clear
11:15 PM 39.2 °F 35.9 °F 35.6 °F 87% 30.03 in 10.0 mi WNW 4.6 mph - N/A   Clear
11:35 PM 42.8 °F 41.1 °F 35.6 °F 76% 30.04 in 10.0 mi WNW 3.5 mph - N/A   Clear
11:55 PM 44.6 °F 40.7 °F 33.8 °F 66% 30.05 in 10.0 mi WNW 6.9 mph - N/A   Clear